Stations météo

réclame
Mon MeteoGroup
Salon, France (7648): Température de l'air & dewpoint: 17.09.2019 13:00:00 - 23.09.2019 13:00:00 (CEST)Salon, France (7648): Température de l'air 5cm: 17.09.2019 13:00:00 - 23.09.2019 13:00:00 (CEST)Salon, France (7648): Vitesse du vent & gusts: 17.09.2019 13:00:00 - 23.09.2019 13:00:00 (CEST)Salon, France (7648): Direction du vent: 17.09.2019 13:00:00 - 23.09.2019 13:00:00 (CEST)Salon, France (7648): reduced air pressure: 17.09.2019 13:00:00 - 23.09.2019 13:00:00 (CEST)Salon, France (7648): visibility: 17.09.2019 13:00:00 - 23.09.2019 13:00:00 (CEST)Salon, France (7648): Quantités de précipitations: 17.09.2019 13:00:00 - 23.09.2019 13:00:00 (CEST)
Date & Time tt [°C] td [°C] tt 5cm [°C] ff [km/h] ff [knt] fx [km/h] fx [knt] dd ppp [hPa] vv [km] rr [mm]
23.09.2019 13:00:00 22,1 12,1 22,9 24 13 42 23 NW 1015,9 60 0,0
23.09.2019 12:00:00 20,6 12,6 22,2 18 10 36 19 NW 1016,2 59 0,0
23.09.2019 11:00:00 19,7 13,2 21,3 23 12 40 21 NNW 1016,4 60 0,0
23.09.2019 10:00:00 18,3 12,9 19,6 25 13 46 25 NNW 1016,4 59 0,0
23.09.2019 09:00:00 17,0 12,5 16,3 20 11 40 22 NW 1016,2 60 0,0
23.09.2019 08:00:00 15,6 12,5 14,7 17 9 35 19 WNW 1016,2 48 0,0
23.09.2019 07:00:00 15,3 12,8 14,8 16 9 40 22 NW 1015,7 60 0,0
23.09.2019 06:00:00 15,5 13,0 15,0 19 10 34 19 NW 1015,4 60 0,0
23.09.2019 05:00:00 16,4 12,7 15,3 16 9 36 19 NW 1015,2 60 0,0
23.09.2019 04:00:00 16,3 13,0 15,4 11 6 42 23 NW 1015,1 60 0,0
23.09.2019 03:00:00 17,3 13,4 16,5 26 14 42 23 NNW 1014,8 60 0,0
23.09.2019 02:00:00 16,9 14,0 16,4 13 7 33 18 NW 1014,7 60 0,0
23.09.2019 01:00:00 17,2 15,4 17,0 10 5 16 8 NW 1015,3 60 0,0
23.09.2019 00:00:00 17,2 16,1 16,9 9 5 19 10 W 1014,8 60 0,0
22.09.2019 23:00:00 17,9 17,1 17,5 6 4 11 6 WSW 1014,2 60 6,6
22.09.2019 22:00:00 18,1 16,9 17,5 9 5 31 17 WNW 1013,7 1,0 6,1
22.09.2019 21:00:00 20,2 18,3 19,0 5 3 18 10 SSW 1012,9 20 2,0
22.09.2019 20:00:00 21,9 17,5 19,3 12 7 19 11 ESE 1012,0 15 0,2
22.09.2019 19:00:00 22,1 18,1 20,8 8 4 16 9 ESE 1011,8 53 0,0
22.09.2019 18:00:00 22,5 18,5 20,4 7 4 17 9 ESE 1011,5 15 0,0
22.09.2019 17:00:00 23,6 17,6 20,8 11 6 27 15 SE 1011,5 19 0,0
22.09.2019 16:00:00 24,9 17,4 26,2 15 8 25 14 ESE 1011,6 60 0,0
22.09.2019 15:00:00 24,6 17,1 26,7 18 10 32 17 ESE 1011,9 57 0,0
22.09.2019 14:00:00 24,3 16,8 25,1 19 10 33 18 ESE 1012,3 53 0,0
22.09.2019 13:00:00 23,6 16,9 21,9 21 11 32 18 E 1012,6 60 0,0
22.09.2019 12:00:00 20,6 18,0 20,3 11 6 19 10 NE 1013,2 53 0,0
22.09.2019 11:00:00 20,0 18,1 19,9 13 7 23 12 E 1013,3 19 0,0
22.09.2019 10:00:00 19,2 17,5 17,9 13 7 24 13 ENE 1013,2 14 0,0
22.09.2019 09:00:00 18,3 17,3 17,7 16 9 29 16 ENE 1012,8 20 8,0
22.09.2019 08:00:00 18,3 17,3 17,4 13 7 21 11 ENE 1012,9 6 3,6
22.09.2019 07:00:00 18,2 16,9 17,4 6 3 8 4 WSW 1012,9 7 0,2
22.09.2019 06:00:00 18,2 16,7 17,0 3 2 14 8 ENE 1012,5 35 0,6
22.09.2019 05:00:00 18,2 16,0 17,1 5 3 9 5 N 1012,9 32 0,0
22.09.2019 04:00:00 18,0 15,4 16,8 5 3 15 8 NE 1013,0 47 0,0
22.09.2019 03:00:00 18,0 15,3 16,1 8 5 15 8 NE 1013,8 50 0,0
22.09.2019 02:00:00 17,3 14,9 15,2 5 3 18 10 NE 1013,9 52 0,0
22.09.2019 01:00:00 16,6 14,2 15,2 9 5 18 10 ENE 1013,7 50 0,0
22.09.2019 00:00:00 17,2 14,1 15,8 3 2 25 13 E 1013,8 57 0,0
21.09.2019 23:00:00 17,2 14,3 16,2 10 5 26 14 E 1014,0 51 0,0
21.09.2019 22:00:00 17,2 14,5 16,0 17 9 40 21 ENE 1014,2 52 0,0
21.09.2019 21:00:00 17,2 14,7 15,7 16 9 40 21 E 1014,4 48 0,0
21.09.2019 20:00:00 16,9 14,9 15,7 21 12 40 22 E 1014,5 20 0,8
21.09.2019 19:00:00 17,7 14,8 16,1 27 14 60 33 E 1016,1 18 0,6
21.09.2019 18:00:00 17,8 15,2 16,1 37 20 59 32 ESE 1015,6 11 2,2
21.09.2019 17:00:00 17,4 15,6 16,2 16 8 30 16 E 1016,6 15 2,3
21.09.2019 16:00:00 17,3 15,3 16,3 14 8 32 18 E 1017,4 13 3,2
21.09.2019 15:00:00 19,1 15,4 17,2 14 8 37 20 E 1017,7 11 0,8
21.09.2019 14:00:00 20,5 14,6 17,9 26 14 40 22 ENE 1017,1 60 0,0
21.09.2019 13:00:00 21,3 13,5 20,7 25 13 41 22 ESE 1018,4 45 0,0
21.09.2019 12:00:00 21,9 13,5 20,7 22 12 39 21 ESE 1019,1 45 0,0
21.09.2019 11:00:00 22,8 11,8 22,6 26 14 46 25 E 1019,1 52 0,0
21.09.2019 10:00:00 21,3 13,5 21,5 9 5 24 13 ENE 1018,7 59 0,0
21.09.2019 09:00:00 20,1 13,1 17,5 11 6 21 11 ENE 1018,7 60 0,0
21.09.2019 08:00:00 17,6 12,5 15,2 10 6 14 8 ENE 1018,9 60 0,0
21.09.2019 07:00:00 16,4 12,0 14,1 6 3 11 6 ENE 1018,5 60 0,0
21.09.2019 06:00:00 15,6 12,0 13,5 10 5 14 8 ENE 1019,0 60 0,0
21.09.2019 05:00:00 14,9 11,9 12,4 8 4 10 5 ENE 1019,7 53 0,0
21.09.2019 04:00:00 15,1 11,5 13,2 2 1 8 4 E 1020,0 44 0,0
21.09.2019 03:00:00 16,0 11,8 13,6 0 0 11 6 N 1019,9 57 0,0
21.09.2019 02:00:00 15,2 11,8 13,6 10 5 11 6 ENE 1020,2 57 0,0
21.09.2019 01:00:00 17,3 11,8 14,1 4 2 11 6 SE 1020,2 60 0,0
21.09.2019 00:00:00 17,3 11,3 15,2 2 1 12 6 NE 1020,2 60 0,0
20.09.2019 23:00:00 18,0 11,8 16,0 8 4 14 8 ENE 1020,4 60 0,0
20.09.2019 22:00:00 21,3 11,6 19,7 11 6 22 12 E 1020,2 60 0,0
20.09.2019 21:00:00 22,2 11,3 20,5 16 9 25 14 ESE 1019,7 60 0,0
20.09.2019 20:00:00 22,8 16,1 21,7 7 4 20 11 SE 1019,2 46 0,0
20.09.2019 19:00:00 25,1 16,0 25,2 13 7 24 13 S 1018,8 54 0,0
20.09.2019 18:00:00 26,3 16,0 29,8 14 8 24 13 SSW 1018,8 57 0,0
20.09.2019 17:00:00 26,9 15,6 32,0 14 8 30 16 SW 1019,0 53 0,0
20.09.2019 16:00:00 27,8 15,5 31,0 10 6 24 13 S 1019,3 56 0,0
20.09.2019 15:00:00 27,7 14,7 31,1 10 6 24 13 S 1019,9 58 0,0
20.09.2019 14:00:00 27,6 14,6 30,1 8 4 25 13 SE 1020,4 49 0,0
20.09.2019 13:00:00 27,2 14,9 32,5 10 5 30 16 SSE 1020,8 60 0,0
20.09.2019 12:00:00 26,5 15,5 28,6 13 7 24 13 ENE 1020,9 54 0,0
20.09.2019 11:00:00 25,6 16,2 30,1 12 6 23 12 E 1021,1 33 0,0
20.09.2019 10:00:00 23,4 17,2 22,9 3 2 6 4 WNW 1021,0 19 0,0
20.09.2019 09:00:00 19,2 14,9 16,0 5 3 8 5 NNE 1020,9 12 0,0
20.09.2019 08:00:00 16,3 13,2 13,8 0 0 9 5 N 1020,4 18 0,0
20.09.2019 07:00:00 15,6 11,4 14,2 0 0 6 4 N 1020,2 50 0,0
20.09.2019 06:00:00 16,1 11,7 14,5 4 2 9 5 NNE 1019,8 60 0,0
20.09.2019 05:00:00 16,3 10,2 14,9 7 4 9 5 N 1020,0 60 0,0
20.09.2019 04:00:00 16,5 10,6 15,3 0 0 8 4 N 1020,0 60 0,0
20.09.2019 03:00:00 18,1 12,1 16,7 0 0 4 2 N 1020,0 58 0,0
20.09.2019 02:00:00 18,1 12,3 15,5 0 0 3 2 N 1020,1 59 0,0
20.09.2019 01:00:00 17,4 12,3 15,6 0 0 4 2 N 1019,8 10 0,0
20.09.2019 00:00:00 19,2 12,2 17,1 2 1 6 3 SW 1019,7 49 0,0
19.09.2019 23:00:00 18,9 11,9 17,4 4 2 6 4 NNE 1019,4 60 0,0
19.09.2019 22:00:00 21,8 10,3 19,7 5 3 13 7 SSW 1018,6 59 0,0
19.09.2019 21:00:00 22,4 14,8 21,6 10 5 16 8 SW 1017,8 54 0,0
19.09.2019 20:00:00 24,6 11,9 23,4 3 1 10 6 WSW 1016,6 60 0,0
19.09.2019 19:00:00 26,3 10,8 26,9 5 3 17 9 NW 1016,0 59 0,0
19.09.2019 18:00:00 26,9 11,8 28,9 6 3 16 9 WNW 1015,8 37 0,0
19.09.2019 17:00:00 27,3 12,1 29,9 11 6 27 14 W 1015,5 48 0,0
19.09.2019 16:00:00 27,0 12,6 31,1 13 7 24 13 NW 1015,7 43 0,0
19.09.2019 15:00:00 27,2 12,8 32,6 11 6 25 13 NNW 1015,7 59 0,0
19.09.2019 14:00:00 26,1 12,5 31,5 9 5 21 11 WNW 1016,2 60 0,0
19.09.2019 13:00:00 24,8 12,1 27,4 13 7 27 15 NNW 1016,6 47 0,0
19.09.2019 12:00:00 21,8 10,0 23,8 23 12 33 18 NNW 1017,1 47 0,0
19.09.2019 11:00:00 22,0 9,8 23,5 21 12 29 16 NNW 1016,9 32 0,0
19.09.2019 10:00:00 20,6 9,8 22,4 23 12 32 17 NNW 1016,5 27 0,0
19.09.2019 09:00:00 18,7 8,9 17,4 13 7 24 13 N 1016,3 53 0,0
19.09.2019 08:00:00 17,1 8,2 14,8 16 9 25 13 N 1015,9 58 0,0
19.09.2019 07:00:00 16,5 8,9 15,7 5 3 14 8 WNW 1016,1 60 0,0
19.09.2019 06:00:00 16,9 9,3 16,0 10 6 22 12 NNW 1015,5 60 0,0
19.09.2019 05:00:00 18,2 9,8 15,7 13 7 26 14 N 1015,5 60 0,0
19.09.2019 04:00:00 17,3 12,0 16,2 9 5 11 6 ENE 1016,0 60 0,0
19.09.2019 03:00:00 18,2 12,2 17,0 4 2 6 4 S 1016,2 59 0,0
19.09.2019 02:00:00 19,8 11,6 18,1 2 1 20 11 WNW 1016,0 60 0,0
19.09.2019 01:00:00 20,7 11,6 19,5 17 9 39 21 N 1015,4 60 0,0
19.09.2019 00:00:00 21,4 12,0 19,9 15 8 29 16 N 1015,8 60 0,0
18.09.2019 23:00:00 20,7 18,5 20,0 8 4 11 6 NW 1016,8 13 0,0
18.09.2019 22:00:00 21,4 19,5 20,9 3 2 10 5 W 1016,9 7 0,0
18.09.2019 21:00:00 21,9 19,5 21,1 4 2 14 8 WSW 1015,9 10 0,0
18.09.2019 20:00:00 22,9 19,1 22,5 6 3 11 6 W 1015,6 14 0,0
18.09.2019 19:00:00 24,2 19,1 24,6 8 4 20 11 SSW 1014,7 18 0,0
18.09.2019 18:00:00 25,1 18,8 27,6 14 7 25 14 SSW 1014,4 23 0,0
18.09.2019 17:00:00 26,6 18,7 30,4 15 8 27 14 SSW 1014,0 24 0,0
18.09.2019 16:00:00 27,2 18,2 30,2 12 6 19 10 S 1014,2 23 0,0
18.09.2019 15:00:00 27,0 17,5 31,1 14 8 24 13 SW 1014,6 35 0,0
18.09.2019 14:00:00 27,3 17,2 35,2 13 7 26 14 SSW 1014,9 47 0,0
18.09.2019 13:00:00 26,4 18,0 28,6 3 2 19 10 ENE 1015,1 25 0,0
18.09.2019 12:00:00 24,4 17,6 28,8 6 4 13 7 WNW 1015,3 20 0,0
18.09.2019 11:00:00 23,5 17,3 25,5 3 2 11 6 NNE 1015,1 25 0,0
18.09.2019 10:00:00 21,5 17,3 20,8 9 5 14 7 NE 1015,1 20 0,0
18.09.2019 09:00:00 18,9 16,9 16,9 7 4 10 6 NE 1014,6 14 0,0
18.09.2019 08:00:00 17,0 16,4 14,6 5 3 7 4 NE 1014,1 7 0,0
18.09.2019 07:00:00 16,7 16,1 14,9 2 1 7 4 NE 1014,0 6 0,0
18.09.2019 06:00:00 17,0 16,2 15,4 5 3 9 5 NE 1014,0 6 0,0
18.09.2019 05:00:00 17,2 16,6 15,7 4 2 10 5 E 1014,3 4,8 0,0
18.09.2019 04:00:00 17,3 16,7 15,9 6 3 10 5 NE 1014,5 6 0,0
18.09.2019 03:00:00 17,1 16,1 15,8 7 4 10 5 NE 1014,6 7 0,0
18.09.2019 02:00:00 17,2 16,2 16,1 6 3 9 5 NE 1015,0 10 0,0
18.09.2019 01:00:00 17,6 16,5 16,2 3 2 6 4 N 1014,7 9 0,0
18.09.2019 00:00:00 18,2 16,4 16,4 5 3 9 5 ENE 1014,7 18 0,0
17.09.2019 23:00:00 19,5 17,3 17,3 0 0 6 4 N 1014,3 16 0,0
17.09.2019 22:00:00 20,0 17,0 18,3 0 0 4 2 N 1014,4 17 0,0
17.09.2019 21:00:00 22,1 18,3 21,3 3 2 12 6 SW 1014,1 26 0,0
17.09.2019 20:00:00 23,2 18,1 22,6 8 5 17 9 SSW 1013,6 31 0,0
17.09.2019 19:00:00 25,2 17,4 25,8 10 5 20 11 SW 1013,5 40 0,0
17.09.2019 18:00:00 27,0 17,2 31,1 12 6 23 12 SW 1013,4 24 0,0
17.09.2019 17:00:00 28,8 18,0 33,4 16 9 26 14 SSW 1013,5 20 0,0
17.09.2019 16:00:00 29,1 18,5 34,8 16 9 25 13 SW 1013,7 - 0,0
17.09.2019 15:00:00 30,1 16,9 36,9 16 9 23 13 SSW 1014,1 51 0,0
17.09.2019 14:00:00 30,6 15,5 36,7 13 7 19 10 SSW 1014,9 56 0,0
17.09.2019 13:00:00 29,2 15,7 35,1 2 1 10 5 N 1015,4 49 0,0

tt = Température de l'air
td = dewpoint
tt 5cm = Température de l'air 5cm
ff = Vitesse du vent
fx = gusts
dd = Direction du vent
ppp = reduced air pressure
vv = visibility
rr = Quantités de précipitations

stations d'obs. à proximité